User: anonymous   Login
Location: Vancouver
(49.2500°N, 123.1330°W)
Time: 01:23:09
(UTC-08:00)
Language:

Iridium 35 - Orbit

View from above orbital plane
View from above orbital plane
View from above satellite
View from above satellite

Ground track
Ground track

The orbit data is extracted from the following two-line orbital elements,

1 24966U 97056B   17057.55207227  .00000158  00000-0  49272-4 0  9996
2 24966  86.3996   4.9426 0002215  85.2697 274.8751 14.34217931 16671
Epoch (UTC): 26 February 2017 13:14:59
Eccentricity: 0.0002215
inclination: 86.3996°
perigee height: 776 km
apogee height: 779 km
right ascension of ascending node: 4.9426°
argument of perigee: 85.2697°
revolutions per day: 14.34217931
mean anomaly at epoch: 274.8751°
orbit number at epoch: 1667

The dashed part of the orbit path shows where the satellite is in the earth's shadow,  

DLR